| time (UTC) | temp F | wind direction | speed MPH | gust MPH | rain 1hr in | rain 24hr in | rain mn in | humidity % | barometer mb |
| 20260505014017 | 79 | 0.0 | 0.0 | 0.00 | 0.00 | 0.00 | 65 | 987.1 | |
| 20260505013017 | 79 | 0.0 | 0.0 | 0.00 | 0.00 | 0.00 | 64 | 987.1 | |
| 20260505012036 | 80 | 0.0 | 3.0 | 0.00 | 0.00 | 0.00 | 63 | 986.9 | |
| 20260505011017 | 80 | 0.0 | 6.0 | 0.00 | 0.00 | 0.00 | 62 | 986.5 | |
| 20260505010017 | 80 | 0.0 | 3.0 | 0.00 | 0.00 | 0.00 | 62 | 986.5 | |
| 20260505005017 | 80 | 0.0 | 3.0 | 0.00 | 0.00 | 0.00 | 62 | 986.4 | |
| 20260505004017 | 80 | 0.0 | 5.0 | 0.00 | 0.00 | 0.00 | 61 | 986.1 | |
| 20260505003017 | 81 | 0.0 | 3.0 | 0.00 | 0.00 | 0.00 | 61 | 986.1 | |
| 20260505002017 | 81 | 0.0 | 4.0 | 0.00 | 0.00 | 0.00 | 60 | 986.0 | |
| 20260505001017 | 81 | 0.0 | 5.0 | 0.00 | 0.00 | 0.00 | 58 | 986.0 | |
| 20260505000017 | 82 | 293 | 1.0 | 7.0 | 0.00 | 0.00 | 0.00 | 57 | 986.0 |
| 20260504235037 | 82 | 0.0 | 4.0 | 0.00 | 0.00 | 0.00 | 57 | 986.0 | |
| 20260504234017 | 82 | 0.0 | 3.0 | 0.00 | 0.00 | 0.00 | 56 | 986.0 | |
| 20260504233037 | 82 | 0.0 | 5.0 | 0.00 | 0.00 | 0.00 | 56 | 986.0 | |
| 20260504232057 | 83 | 0.0 | 3.0 | 0.00 | 0.00 | 0.00 | 54 | 985.8 | |
| 20260504231037 | 83 | 315 | 1.0 | 5.0 | 0.00 | 0.00 | 0.00 | 53 | 985.7 |
| 20260504230017 | 83 | 0.0 | 7.0 | 0.00 | 0.00 | 0.00 | 52 | 985.7 | |
| 20260504225017 | 84 | 315 | 1.0 | 8.0 | 0.00 | 0.00 | 0.00 | 52 | 985.4 |
| 20260504224017 | 84 | 315 | 2.0 | 12.0 | 0.00 | 0.00 | 0.00 | 51 | 984.9 |
| 20260504223037 | 85 | 0 | 1.0 | 5.0 | 0.00 | 0.00 | 0.00 | 49 | 984.9 |
| 20260504222017 | 85 | 0 | 2.0 | 12.0 | 0.00 | 0.00 | 0.00 | 47 | 984.9 |
| 20260504221017 | 85 | 315 | 2.0 | 10.0 | 0.00 | 0.00 | 0.00 | 47 | 984.8 |
| 20260504220017 | 85 | 315 | 1.0 | 7.0 | 0.00 | 0.00 | 0.00 | 46 | 984.8 |
| 20260504215016 | 86 | 0 | 2.0 | 10.0 | 0.00 | 0.00 | 0.00 | 45 | 984.9 |
| 20260504214016 | 87 | 315 | 3.0 | 12.0 | 0.00 | 0.00 | 0.00 | 43 | 984.7 |
| 20260504213016 | 87 | 315 | 2.0 | 9.0 | 0.00 | 0.00 | 0.00 | 39 | 984.7 |
| 20260504212016 | 88 | 0 | 4.0 | 14.0 | 0.00 | 0.00 | 0.00 | 38 | 984.4 |
| 20260504211017 | 88 | 338 | 3.0 | 14.0 | 0.00 | 0.00 | 0.00 | 39 | 984.4 |
| 20260504210016 | 88 | 0 | 4.0 | 12.0 | 0.00 | 0.00 | 0.00 | 39 | 984.4 |
| 20260504205016 | 88 | 0 | 5.0 | 16.0 | 0.00 | 0.00 | 0.00 | 41 | 984.6 |
| 20260504204016 | 89 | 0 | 4.0 | 11.0 | 0.00 | 0.00 | 0.00 | 40 | 984.6 |
| 20260504203016 | 89 | 0 | 4.0 | 14.0 | 0.00 | 0.00 | 0.00 | 39 | 984.6 |
| 20260504202016 | 89 | 315 | 4.0 | 14.0 | 0.00 | 0.00 | 0.00 | 39 | 984.4 |
| 20260504201016 | 89 | 0 | 4.0 | 12.0 | 0.00 | 0.00 | 0.00 | 40 | 984.6 |
| 20260504200016 | 89 | 0 | 6.0 | 17.0 | 0.00 | 0.00 | 0.00 | 41 | 984.6 |
| 20260504195016 | 89 | 0 | 4.0 | 15.0 | 0.00 | 0.00 | 0.00 | 44 | 984.8 |
| 20260504194016 | 89 | 0 | 4.0 | 10.0 | 0.00 | 0.00 | 0.00 | 44 | 984.9 |
| 20260504193036 | 88 | 0 | 6.0 | 14.0 | 0.00 | 0.00 | 0.00 | 45 | 984.9 |
| 20260504192016 | 90 | 0 | 5.0 | 14.0 | 0.00 | 0.00 | 0.00 | 45 | 984.8 |
| 20260504191036 | 89 | 338 | 3.0 | 11.0 | 0.00 | 0.00 | 0.00 | 48 | 984.9 |
| 20260504190016 | 90 | 338 | 5.0 | 15.0 | 0.00 | 0.00 | 0.00 | 45 | 984.9 |
| 20260504185016 | 90 | 0 | 4.0 | 13.0 | 0.00 | 0.00 | 0.00 | 49 | 984.8 |
| 20260504184016 | 89 | 0 | 4.0 | 13.0 | 0.00 | 0.00 | 0.00 | 48 | 984.9 |
| 20260504183016 | 90 | 0 | 6.0 | 14.0 | 0.00 | 0.00 | 0.00 | 48 | 984.9 |
| 20260504182016 | 89 | 0 | 4.0 | 13.0 | 0.00 | 0.00 | 0.00 | 48 | 985.0 |
| 20260504181016 | 90 | 0 | 4.0 | 13.0 | 0.00 | 0.00 | 0.00 | 47 | 985.2 |
| 20260504180016 | 89 | 0 | 5.0 | 20.0 | 0.00 | 0.00 | 0.00 | 47 | 985.2 |
| 20260504175016 | 89 | 338 | 5.0 | 17.0 | 0.00 | 0.00 | 0.00 | 49 | 985.4 |
| 20260504174016 | 89 | 0 | 6.0 | 17.0 | 0.00 | 0.00 | 0.00 | 48 | 985.8 |
| 20260504173016 | 90 | 0 | 4.0 | 13.0 | 0.00 | 0.00 | 0.00 | 46 | 985.8 |
| 20260504172016 | 89 | 0 | 4.0 | 12.0 | 0.00 | 0.00 | 0.00 | 49 | 985.9 |
| 20260504171035 | 89 | 338 | 5.0 | 14.0 | 0.00 | 0.00 | 0.00 | 47 | 986.0 |
| 20260504151017 | 85 | 0.0 | 0.0 | 0.00 | 0.00 | 0.00 | 60 | 987.1 | |
| 20260504141057 | 83 | 0.0 | 0.0 | 0.00 | 0.00 | 0.00 | 62 | 987.3 | |
| 20260504081016 | 74 | 0.0 | 0.0 | 0.00 | 0.00 | 0.00 | 85 | 986.4 | |
| 20260504050017 | 76 | 0.0 | 0.0 | 0.00 | 0.00 | 0.00 | 80 | 987.4 | |
| 20260504045017 | 76 | 0.0 | 0.0 | 0.00 | 0.00 | 0.00 | 80 | 987.5 | |
| 20260504044017 | 76 | 0.0 | 0.0 | 0.00 | 0.00 | 0.00 | 79 | 987.7 | |
| 20260504043017 | 76 | 0.0 | 0.0 | 0.00 | 0.00 | 0.00 | 79 | 987.7 | |
| 20260504042037 | 76 | 0.0 | 0.0 | 0.00 | 0.00 | 0.00 | 79 | 988.0 | |
| 20260504041017 | 76 | 0.0 | 0.0 | 0.00 | 0.00 | 0.00 | 78 | 988.2 | |
| 20260504040017 | 76 | 0.0 | 0.0 | 0.00 | 0.00 | 0.00 | 78 | 988.2 | |
| 20260504035037 | 76 | 0.0 | 0.0 | 0.00 | 0.00 | 0.00 | 77 | 988.4 | |
| 20260504034016 | 77 | 0.0 | 0.0 | 0.00 | 0.00 | 0.00 | 77 | 988.1 | |
| 20260504033016 | 77 | 0.0 | 0.0 | 0.00 | 0.00 | 0.00 | 76 | 988.1 | |
| 20260504032016 | 77 | 0.0 | 0.0 | 0.00 | 0.00 | 0.00 | 75 | 988.0 | |
| 20260504031016 | 77 | 0.0 | 0.0 | 0.00 | 0.00 | 0.00 | 74 | 987.9 | |
| 20260504030036 | 77 | 0.0 | 0.0 | 0.00 | 0.00 | 0.00 | 73 | 987.9 | |
| 20260504025016 | 77 | 0.0 | 0.0 | 0.00 | 0.00 | 0.00 | 72 | 988.0 | |
| 20260504024016 | 77 | 0.0 | 0.0 | 0.00 | 0.00 | 0.00 | 71 | 987.8 | |
| 20260504023016 | 78 | 0.0 | 0.0 | 0.00 | 0.00 | 0.00 | 70 | 987.8 | |
| 20260504022016 | 78 | 0.0 | 0.0 | 0.00 | 0.00 | 0.00 | 69 | 987.7 | |
| 20260504021036 | 78 | 0.0 | 0.0 | 0.00 | 0.00 | 0.00 | 69 | 987.6 | |
| 20260504020016 | 78 | 0.0 | 0.0 | 0.00 | 0.00 | 0.00 | 68 | 987.6 | |
| 20260504015016 | 78 | 0.0 | 0.0 | 0.00 | 0.00 | 0.00 | 68 | 987.5 |